Вернуться в каталог

COSMOS 1285 DEB

АктивенHEO
NORAD 27800·DEBRIS·🇷🇺 Russia

Запущен Aug 4, 1981 с Plesetsk Cosmodrome

Loading…

Ближайшие Пролёты (ближайшие 24 часа)

TLE

СвежийSource: Space-Track

Эпоха: Sep 11, 2026, 13:38 UTC

1 27800U 81071P   26254.56814541  .00000852  00000-0  00000-0 0  9992
2 27800  64.4115  56.9096 7139295  34.5184 355.7162  1.97635709195119

Отслеживайте COSMOS 1285 DEB в реальном времени с AllMySat

Download on the App Store